Tracking 18630 objects as of 24-May-2017
HD Live streaming from Space Station
objects crossing your sky now

COSMOS 2416

Track COSMOS 2416 now!
10-day predictions
COSMOS 2416 is classified as:


NORAD ID: 28908
Int'l Code: 2005-048A
Perigee: 1,443.6 km
Apogee: 1,454.0 km
Inclination: 82.5 °
Period: 114.7 minutes
Semi major axis: 7819 km
RCS: 1.597 m2 (large)
Launch date: December 21, 2005
Source: Commonwealth of Independent States (former USSR) (CIS)
Launch site: PLESETSK MISSILE AND SPACE COMPLEX (PKMTR)
Your satellite tracking list
Your tracking list is empty





NASA's NSSDC Master Catalog

Two Line Element Set (TLE):
1 28908U 05048A   17144.25633031 +.00000000 +00000-0 -61963-4 0  9994
2 28908 082.4688 264.6164 0006650 008.9419 357.5132 12.55476769523426
Source of the keplerian elements: AFSPC